EW6254 Weather Reports


Display with metric or nautical units.
time (UTC)temp
F
wind
direction
speed
MPH
gust
MPH
rain 1hr
in
rain 24hr
in
rain mn
in
humidity
%
barometer
mb
20170919184601 83 134 7.0 20.0 0.00 0.00 0.00 65 1002.7
20170919183604 83 157 10.0 23.0 0.00 0.00 0.00 66 1002.9
20170919182600 83 134 9.0 23.0 0.00 0.00 0.00 66 1003.2
20170919181606 83 130 6.0 19.0 0.00 0.00 0.00 66 1003.6
20170919180531 82 155 6.0 21.0 0.00 0.00 0.00 67 1004.0
20170919175543 81 185 8.0 21.0 0.00 0.00 0.00 70 1004.1
20170919174519 81 110 7.0 18.0 0.00 0.00 0.00 69 1004.5
20170919173515 81 162 5.0 14.0 0.00 0.00 0.00 70 1004.5
20170919172441 80 122 7.0 18.0 0.00 0.00 0.00 72 1004.8
20170919171421 79 168 7.0 20.0 0.00 0.00 0.00 73 1005.2
20170919170412 78 155 9.0 20.0 0.00 0.00 0.00 74 1005.3
20170919165413 78 130 7.0 18.0 0.00 0.01 0.00 74 1005.5
20170919164415 77 201 8.0 18.0 0.00 0.03 0.00 76 1005.6
20170919163428 77 161 7.0 16.0 0.00 0.03 0.00 77 1005.9
20170919162411 76 150 6.0 14.0 0.00 0.03 0.00 79 1006.4
20170919161431 76 138 7.0 14.0 0.00 0.05 0.00 80 1006.4
20170919160451 75 130 7.0 18.0 0.00 0.05 0.00 82 1006.7
20170919155507 74 140 7.0 18.0 0.00 0.05 0.00 83 1006.8
20170919154433 73 132 6.0 13.0 0.00 0.05 0.00 85 1006.7
20170919153410 72 151 5.0 13.0 0.00 0.05 0.00 89 1007.0
20170919152348 70 148 6.0 13.0 0.00 0.05 0.00 91 1007.1
20170919151313 69 163 6.0 12.0 0.00 0.05 0.00 93 1007.1
20170919150318 69 170 5.0 14.0 0.00 0.05 0.00 94 1007.2
20170919145329 68 132 5.0 14.0 0.00 0.05 0.00 94 1007.4
20170919144344 68 158 5.0 13.0 0.00 0.05 0.00 95 1007.8
20170919143317 67 161 6.0 13.0 0.00 0.06 0.00 94 1007.4
20170919142336 67 146 5.0 12.0 0.00 0.08 0.00 95 1007.5
20170919141338 67 147 6.0 12.0 0.00 0.10 0.00 95 1007.5
20170919140348 67 163 5.0 14.0 0.00 0.12 0.00 95 1007.8
20170919135337 67 142 5.0 14.0 0.00 0.12 0.00 95 1007.7
20170919134320 67 174 5.0 10.0 0.00 0.14 0.00 95 1007.8
20170919133323 67 160 4.0 10.0 0.00 0.15 0.00 95 1007.8
20170919132251 66 141 5.0 13.0 0.00 0.20 0.00 95 1007.8
20170919131226 66 157 6.0 13.0 0.00 0.20 0.00 95 1007.8
20170919130207 66 215 4.0 10.0 0.00 0.23 0.00 95 1007.8
20170919125204 66 135 5.0 10.0 0.00 0.24 0.00 95 1007.8
20170919124214 66 153 5.0 9.0 0.00 0.26 0.00 95 1008.1
20170919123213 66 142 4.0 11.0 0.00 0.29 0.00 95 1007.9
20170919122226 66 129 4.0 11.0 0.00 0.29 0.00 95 1007.8
20170919121217 66 129 3.0 11.0 0.00 0.29 0.00 95 1007.7
20170919120154 66 166 5.0 11.0 0.00 0.29 0.00 95 1007.8
20170919115207 66 144 4.0 8.0 0.00 0.29 0.00 95 1007.6
20170919114216 66 130 4.0 10.0 0.00 0.29 0.00 95 1007.5
20170919113208 66 140 5.0 11.0 0.00 0.29 0.00 95 1007.5
20170919112205 66 154 5.0 11.0 0.00 0.29 0.00 95 1007.5
20170919111214 66 150 4.0 11.0 0.00 0.29 0.00 95 1007.5
20170919110224 66 140 4.0 9.0 0.00 0.29 0.00 95 1007.6
20170919105223 66 151 5.0 12.0 0.00 0.29 0.00 95 1007.6
20170919104231 66 167 5.0 12.0 0.00 0.29 0.00 95 1007.5
20170919103241 66 139 4.0 10.0 0.00 0.29 0.00 95 1007.5
20170919102254 66 149 4.0 11.0 0.00 0.29 0.00 95 1007.5
20170919101301 66 158 4.0 11.0 0.00 0.29 0.00 95 1007.6
20170919100313 66 186 6.0 11.0 0.00 0.29 0.00 95 1007.6
20170919095334 66 159 3.0 7.0 0.00 0.29 0.00 95 1007.8
20170919094318 66 132 5.0 11.0 0.00 0.29 0.00 95 1007.8
20170919093303 66 166 6.0 13.0 0.00 0.29 0.00 95 1007.9
20170919092302 66 179 5.0 13.0 0.00 0.29 0.00 95 1008.0
20170919091306 66 143 4.0 13.0 0.00 0.29 0.00 95 1008.2
20170919090254 66 153 5.0 13.0 0.00 0.29 0.00 95 1008.2
20170919085243 66 136 5.0 13.0 0.00 0.29 0.00 95 1008.2
20170919084213 66 163 5.0 12.0 0.00 0.29 0.00 95 1008.2
20170919083217 66 202 4.0 13.0 0.00 0.29 0.00 95 1008.3
20170919082154 66 113 4.0 13.0 0.00 0.29 0.00 95 1008.4
20170919081132 66 135 4.0 11.0 0.00 0.29 0.00 95 1008.6
20170919080109 66 146 4.0 10.0 0.00 0.29 0.00 95 1008.6
20170919075034 66 155 4.0 9.0 0.00 0.29 0.00 94 1008.8
20170919074046 66 151 3.0 10.0 0.00 0.29 0.00 94 1008.9
20170919073030 66 132 2.0 7.0 0.00 0.29 0.00 94 1009.0
20170919072005 66 173 3.0 6.0 0.00 0.29 0.00 94 1009.0
20170919071025 66 130 3.0 9.0 0.00 0.29 0.00 94 1009.0
20170919070038 66 156 2.0 9.0 0.00 0.29 0.00 94 1009.1
20170919065008 67 143 5.0 9.0 0.00 0.29 0.00 94 1009.2
20170919064023 66 144 4.0 8.0 0.00 0.29 0.00 94 1009.3
20170919062954 67 148 4.0 10.0 0.00 0.29 0.00 94 1009.4
20170919061939 67 144 5.0 11.0 0.00 0.29 0.00 94 1009.4
20170919060955 67 148 4.0 11.0 0.00 0.29 0.00 94 1009.6
20170919055918 67 152 5.0 9.0 0.00 0.29 0.00 94 1009.6
20170919054931 67 153 3.0 10.0 0.00 0.29 0.00 94 1009.6
20170919053945 67 177 2.0 10.0 0.00 0.29 0.00 93 1009.7
20170919052958 67 143 1.0 6.0 0.00 0.29 0.00 93 1009.8
20170919051955 66 130 2.0 5.0 0.00 0.29 0.00 93 1009.9
20170919051000 67 150 2.0 6.0 0.00 0.29 0.00 93 1010.0
20170919045939 67 140 1.0 9.0 0.00 0.29 0.29 93 1010.0
20170919044934 67 152 3.0 9.0 0.00 0.29 0.29 93 1010.1
20170919043944 67 134 3.0 7.0 0.00 0.29 0.29 93 1010.0
20170919042914 67 145 2.0 8.0 0.00 0.29 0.29 93 1010.1
20170919041858 67 154 3.0 8.0 0.00 0.29 0.29 92 1010.1
20170919040904 67 112 3.0 9.0 0.00 0.29 0.29 92 1010.0
20170919035918 67 123 3.0 10.0 0.00 0.29 0.29 92 1010.0
20170919034907 67 110 3.0 10.0 0.00 0.29 0.29 92 1010.1
20170919033838 67 123 3.0 7.0 0.00 0.29 0.29 92 1010.2
20170919032812 68 107 2.0 6.0 0.00 0.29 0.29 92 1010.1
20170919031758 68 79 3.0 7.0 0.00 0.29 0.29 92 1010.1
20170919030805 68 111 2.0 7.0 0.00 0.29 0.29 91 1010.1
20170919025810 68 132 3.0 8.0 0.00 0.29 0.29 91 1010.1
20170919024820 68 118 5.0 9.0 0.00 0.29 0.29 91 1010.1
20170919023809 69 104 4.0 9.0 0.00 0.29 0.29 90 1010.0
20170919022808 69 117 4.0 8.0 0.00 0.29 0.29 90 1010.1
20170919021819 69 121 4.0 10.0 0.00 0.29 0.29 89 1010.1
20170919020829 70 115 5.0 10.0 0.00 0.29 0.29 89 1009.9
20170919015837 70 109 5.0 9.0 0.00 0.29 0.29 89 1010.0
20170919014840 70 119 4.0 8.0 0.00 0.29 0.29 88 1010.0
20170919013832 70 105 4.0 8.0 0.00 0.29 0.29 88 1009.9
20170919012854 71 113 3.0 6.0 0.00 0.29 0.29 88 1009.9
20170919011855 71 150 3.0 8.0 0.00 0.29 0.29 88 1009.8
20170919010843 71 146 2.0 8.0 0.00 0.29 0.29 88 1009.7
20170919005848 71 140 2.0 6.0 0.00 0.29 0.29 88 1009.6
20170919004834 71 139 1.0 4.0 0.00 0.29 0.29 88 1009.8
20170919003846 71 129 1.0 4.0 0.00 0.29 0.29 88 1009.5
20170919002908 71 131 1.0 3.0 0.00 0.29 0.29 87 1009.6
20170919001902 71 113 2.0 4.0 0.00 0.29 0.29 87 1009.5
20170919000904 71 113 2.0 4.0 0.00 0.29 0.29 87 1009.4
20170918235904 71 139 2.0 5.0 0.00 0.29 0.29 86 1009.3
20170918234858 72 137 2.0 5.0 0.00 0.29 0.29 86 1009.5
20170918233920 72 125 1.0 3.0 0.00 0.29 0.29 85 1009.3
20170918232844 72 121 1.0 5.0 0.00 0.29 0.29 85 1009.2
20170918231850 72 148 1.0 5.0 0.00 0.29 0.29 85 1009.4
20170918230856 72 203 2.0 5.0 0.00 0.29 0.29 85 1009.4
20170918225908 72 224 1.0 5.0 0.00 0.29 0.29 85 1009.3
20170918224833 72 217 2.0 5.0 0.00 0.29 0.29 85 1009.4
20170918223826 72 203 2.0 6.0 0.00 0.29 0.29 85 1009.9
20170918222757 72 206 2.0 6.0 0.00 0.29 0.29 85 1009.7
20170918221734 72 173 2.0 5.0 0.00 0.29 0.29 85 1009.6
20170918220746 72 218 3.0 7.0 0.00 0.29 0.29 85 1009.7
20170918215747 71 209 3.0 7.0 0.00 0.29 0.29 85 1009.7
20170918214749 71 201 3.0 7.0 0.00 0.29 0.29 86 1009.8
20170918213726 71 247 3.0 7.0 0.00 0.29 0.29 85 1009.9
20170918212734 71 217 3.0 7.0 0.00 0.29 0.29 85 1010.0
20170918211707 71 227 2.0 10.0 0.00 0.29 0.29 85 1010.1
20170918210642 71 227 4.0 10.0 0.00 0.29 0.29 85 1010.2
20170918205605 71 194 2.0 9.0 0.00 0.29 0.29 85 1010.6
20170918204535 71 179 3.0 9.0 0.00 0.29 0.29 86 1010.6
20170918203508 71 191 3.0 8.0 0.00 0.29 0.29 86 1010.6
20170918202525 70 202 2.0 7.0 0.00 0.29 0.29 89 1010.6
20170918201501 69 191 3.0 9.0 0.00 0.29 0.29 90 1010.7
20170918200455 69 198 3.0 9.0 0.00 0.29 0.29 91 1010.9
20170918195424 68 211 3.0 8.0 0.00 0.29 0.29 92 1011.0
20170918194443 68 132 1.0 8.0 0.00 0.29 0.29 93 1011.3
20170918193453 67 157 1.0 8.0 0.00 0.29 0.29 93 1011.6
20170918192449 67 207 1.0 8.0 0.00 0.29 0.29 93 1011.7
20170918191454 67 213 2.0 7.0 0.00 0.29 0.29 94 1011.8
20170918190439 67 182 2.0 7.0 0.00 0.29 0.29 94 1011.8